Find STARLINK-37719

NORAD ID: 799501190 Int'l Des: 2026-160N Constellation: starlink operational

当前视图

正在加载3D地球...

About STARLINK-37719

STARLINK-37719 (NORAD 799501190) is a starlink constellation satellite launched Jul 9, 2026

关于 STARLINK-37719

正在加载描述...

即将过境

Passes for default location (London). Set your location on the main map for personalized predictions.

高度历史

Loading altitude history...

两行轨道根数

1 99999C 2026160N 26195.42548610 .00475720 00000-0 611240-4 0 1956
2 99999 70.0023 28.5072 0010012 258.9325 171.0717 16.06641478 19
Epoch: Jul 14, 2026 • Age: 7 hours